• In Hungary
  • List of Countries
  • For 7 days
  • Water Temperature
  • Satellite Maps
  • Weather Map
  • News
  • Weather Widgets
  • user-avatar
    Login

    Hourly Weather Niskonicy

    Today, 19 April, Thursday

    Time Temperature Precipitation Wind Pressure Humidity
    00:00 +5°C° 0.3 mm 3 mps 736 mmHg 95%
    01:00 +7°C° 0.3 mm 3 mps 736 mmHg 95%
    02:00 +5°C° 0 mm 3 mps 736 mmHg 94%
    03:00 +5°C° 0.5 mm 3 mps 736 mmHg 94%
    04:00 +5°C° 0.5 mm 3 mps 736 mmHg 94%
    05:00 +5°C° 0.5 mm 4 mps 736 mmHg 94%
    06:00 +5°C° 0.6 mm 4 mps 736 mmHg 94%
    07:00 +5°C° 0.6 mm 4 mps 736 mmHg 93%
    08:00 +6°C° 0.6 mm 4 mps 737 mmHg 92%
    09:00 +6°C° 0.4 mm 4 mps 737 mmHg 91%
    10:00 +7°C° 0.4 mm 4 mps 737 mmHg 89%
    11:00 +7°C° 0.4 mm 4 mps 737 mmHg 88%
    12:00 +8°C° 0.1 mm 4 mps 737 mmHg 85%
    13:00 +8°C° 0.1 mm 5 mps 737 mmHg 83%
    14:00 +9°C° 0.1 mm 5 mps 737 mmHg 81%
    15:00 +10°C° 0 mm 4 mps 738 mmHg 78%
    16:00 +11°C° 0 mm 4 mps 738 mmHg 75%
    17:00 +11°C° 0 mm 4 mps 738 mmHg 72%
    18:00 +10°C° 0 mm 4 mps 738 mmHg 75%
    19:00 +9°C° 0 mm 3 mps 739 mmHg 78%
    20:00 +7°C° 0 mm 3 mps 739 mmHg 80%
    21:00 +7°C° 0 mm 3 mps 740 mmHg 82%
    22:00 +5°C° 0 mm 3 mps 740 mmHg 84%
    23:00 +5°C° 0 mm 3 mps 740 mmHg 87%

    Tomorrow, 20 April, Friday

    Time Temperature Precipitation Wind Pressure Humidity
    00:00 +5°C° 0 mm 3 mps 741 mmHg 89%
    01:00 +4°C° 0 mm 3 mps 741 mmHg 92%
    02:00 +4°C° 0 mm 3 mps 741 mmHg 94%
    03:00 +4°C° 0 mm 3 mps 741 mmHg 95%
    04:00 +4°C° 0 mm 3 mps 742 mmHg 95%
    05:00 +4°C° 0 mm 3 mps 742 mmHg 96%
    06:00 +4°C° 0.1 mm 3 mps 742 mmHg 93%
    07:00 +5°C° 0.1 mm 3 mps 742 mmHg 91%
    08:00 +5°C° 0.1 mm 3 mps 743 mmHg 89%
    09:00 +7°C° 0.1 mm 3 mps 743 mmHg 83%
    10:00 +8°C° 0.1 mm 3 mps 743 mmHg 76%
    11:00 +9°C° 0.1 mm 2 mps 743 mmHg 69%
    12:00 +10°C° 0.1 mm 2 mps 743 mmHg 66%
    13:00 +10°C° 0.1 mm 2 mps 743 mmHg 63%
    14:00 +12°C° 0.1 mm 2 mps 743 mmHg 60%
    15:00 +12°C° 0 mm 2 mps 742 mmHg 61%
    16:00 +12°C° 0 mm 2 mps 742 mmHg 62%
    17:00 +12°C° 0 mm 2 mps 741 mmHg 63%
    18:00 +9°C° 0 mm 2 mps 741 mmHg 69%
    19:00 +8°C° 0 mm 2 mps 740 mmHg 76%
    20:00 +7°C° 0 mm 2 mps 740 mmHg 82%
    21:00 +7°C° 0 mm 3 mps 739 mmHg 82%
    22:00 +7°C° 0 mm 3 mps 738 mmHg 82%
    23:00 +6°C° 0 mm 4 mps 737 mmHg 82%

    Day after tomorrow, 21 April, Saturday

    Time Temperature Precipitation Wind Pressure Humidity
    00:00 +6°C° 0 mm 4 mps 736 mmHg 82%
    01:00 +7°C° 0 mm 4 mps 735 mmHg 81%
    02:00 +7°C° 0 mm 5 mps 734 mmHg 81%
    03:00 +7°C° 0 mm 5 mps 733 mmHg 84%
    04:00 +7°C° 0 mm 5 mps 732 mmHg 86%
    05:00 +7°C° 0 mm 5 mps 731 mmHg 89%
    06:00 +8°C° 0.1 mm 5 mps 730 mmHg 87%
    07:00 +9°C° 0.1 mm 5 mps 729 mmHg 85%
    08:00 +9°C° 0.1 mm 6 mps 728 mmHg 83%
    09:00 +10°C° 0.2 mm 6 mps 727 mmHg 82%
    10:00 +10°C° 0.2 mm 6 mps 726 mmHg 82%
    11:00 +11°C° 0.2 mm 6 mps 725 mmHg 81%
    12:00 +10°C° 0.3 mm 7 mps 725 mmHg 78%
    13:00 +10°C° 0.3 mm 7 mps 725 mmHg 75%
    14:00 +9°C° 0.3 mm 8 mps 725 mmHg 72%
    15:00 +7°C° 0 mm 8 mps 725 mmHg 70%
    16:00 +7°C° 0 mm 8 mps 725 mmHg 68%
    17:00 +6°C° 0 mm 8 mps 726 mmHg 65%
    18:00 +5°C° 0 mm 7 mps 726 mmHg 68%
    19:00 +5°C° 0 mm 7 mps 727 mmHg 70%
    20:00 +4°C° 0 mm 6 mps 727 mmHg 73%
    21:00 +4°C° 0 mm 6 mps 728 mmHg 74%
    22:00 +3°C° 0 mm 6 mps 728 mmHg 76%
    23:00 +3°C° 0 mm 5 mps 728 mmHg 77%

    22 April, Sunday

    Time Temperature Precipitation Wind Pressure Humidity
    00:00 +2°C° 0 mm 5 mps 729 mmHg 78%
    01:00 +2°C° 0 mm 5 mps 729 mmHg 80%
    02:00 +1°C° 0 mm 5 mps 730 mmHg 81%
    03:00 +1°C° 0 mm 5 mps 730 mmHg 81%
    04:00 +1°C° 0 mm 4 mps 730 mmHg 81%
    05:00 +1°C° 0 mm 4 mps 731 mmHg 81%
    06:00 +1°C° 0 mm 4 mps 731 mmHg 77%
    07:00 +3°C° 0 mm 4 mps 731 mmHg 73%
    08:00 +3°C° 0 mm 4 mps 731 mmHg 68%
    09:00 +4°C° 0 mm 4 mps 732 mmHg 65%
    10:00 +5°C° 0 mm 4 mps 732 mmHg 62%
    11:00 +7°C° 0 mm 3 mps 732 mmHg 59%
    12:00 +6°C° 0.1 mm 4 mps 732 mmHg 59%
    13:00 +6°C° 0.1 mm 4 mps 733 mmHg 58%
    14:00 +7°C° 0.1 mm 4 mps 733 mmHg 58%
    15:00 +6°C° 0.1 mm 4 mps 733 mmHg 58%
    16:00 +7°C° 0.1 mm 3 mps 733 mmHg 59%
    17:00 +5°C° 0.1 mm 3 mps 733 mmHg 60%
    18:00 +4°C° 0 mm 3 mps 734 mmHg 64%
    19:00 +4°C° 0 mm 2 mps 734 mmHg 68%
    20:00 +3°C° 0 mm 2 mps 735 mmHg 72%
    21:00 +2°C° 0 mm 2 mps 735 mmHg 73%
    22:00 +2°C° 0 mm 1 mps 735 mmHg 75%
    23:00 +1°C° 0 mm 1 mps 735 mmHg 76%

    23 April, Monday

    Time Temperature Precipitation Wind Pressure Humidity
    00:00 +1°C° 0 mm 1 mps 736 mmHg 77%
    01:00 0°C° 0 mm 1 mps 736 mmHg 78%
    02:00 0°C° 0 mm 1 mps 736 mmHg 78%
    03:00 0°C° 0 mm 1 mps 737 mmHg 78%
    04:00 0°C° 0 mm 1 mps 737 mmHg 77%
    05:00 0°C° 0 mm 1 mps 737 mmHg 77%
    06:00 +1°C° 0 mm 1 mps 738 mmHg 67%
    07:00 +3°C° 0 mm 1 mps 738 mmHg 57%
    08:00 +5°C° 0 mm 1 mps 738 mmHg 47%
    09:00 +6°C° 0 mm 1 mps 738 mmHg 43%
    10:00 +7°C° 0 mm 1 mps 738 mmHg 39%
    11:00 +9°C° 0 mm 1 mps 738 mmHg 35%
    12:00 +9°C° 0 mm 1 mps 738 mmHg 34%
    13:00 +10°C° 0 mm 1 mps 738 mmHg 33%
    14:00 +10°C° 0 mm 1 mps 738 mmHg 33%
    15:00 +10°C° 0 mm 1 mps 738 mmHg 33%
    16:00 +9°C° 0 mm 1 mps 738 mmHg 34%
    17:00 +8°C° 0 mm 0 mps 737 mmHg 35%
    18:00 +7°C° 0 mm 1 mps 737 mmHg 41%
    19:00 +5°C° 0 mm 1 mps 737 mmHg 48%
    20:00 +4°C° 0 mm 1 mps 737 mmHg 54%
    21:00 +3°C° 0 mm 1 mps 737 mmHg 58%
    22:00 +2°C° 0 mm 1 mps 737 mmHg 61%
    23:00 +1°C° 0 mm 2 mps 737 mmHg 65%

    24 April, Tuesday

    Time Temperature Precipitation Wind Pressure Humidity
    00:00 -1°C° 0 mm 2 mps 737 mmHg 66%
    01:00 -1°C° 0 mm 2 mps 737 mmHg 68%
    02:00 -1°C° 0 mm 2 mps 737 mmHg 70%
    03:00 -1°C° 0 mm 2 mps 737 mmHg 70%
    04:00 -1°C° 0 mm 2 mps 736 mmHg 71%
    05:00 -1°C° 0 mm 2 mps 736 mmHg 71%
    06:00 +2°C° 0 mm 2 mps 736 mmHg 66%
    07:00 +3°C° 0 mm 3 mps 736 mmHg 60%
    08:00 +5°C° 0 mm 3 mps 735 mmHg 54%
    09:00 +7°C° 0 mm 3 mps 735 mmHg 51%
    10:00 +8°C° 0 mm 4 mps 735 mmHg 48%
    11:00 +10°C° 0 mm 4 mps 735 mmHg 45%
    12:00 +11°C° 0 mm 4 mps 734 mmHg 46%
    13:00 +10°C° 0 mm 5 mps 734 mmHg 47%
    14:00 +10°C° 0 mm 5 mps 733 mmHg 48%
    15:00 +10°C° 0.2 mm 4 mps 733 mmHg 54%
    16:00 +8°C° 0.2 mm 4 mps 733 mmHg 60%
    17:00 +9°C° 0.2 mm 3 mps 732 mmHg 66%
    18:00 +8°C° 0.4 mm 3 mps 732 mmHg 71%
    19:00 +7°C° 0.4 mm 3 mps 732 mmHg 75%
    20:00 +5°C° 0.4 mm 3 mps 731 mmHg 80%
    21:00 +5°C° 0.8 mm 3 mps 731 mmHg 82%
    22:00 +4°C° 0.8 mm 3 mps 731 mmHg 84%
    23:00 +4°C° 0.8 mm 3 mps 731 mmHg 86%
    Show more